[[{"header":{"parameterUnit":"m.s-1","parameterCategory":1,"la1":30.2991,"la2":30.254,"lo1":-89.0895,"lo2":-89.0444,"dy":0.0017,"dx":0.0017,"nx":28,"ny":28,"refTime":"2025-11-07T03:00:00:Z","depth":0,"parameterNumber":2,"parameterNumberName":"U-component_of_WINDS"},"data":[0,0,0,0,0,0,0,0,0,0,0,0,0,0,0,0,0,0,0,0,0,0,0,0,0,0,0,0,0,0,0,0,0,0,0,0,0,0,0,0,0,0,0,0,0,0,0,0,0,0,0,0,0,0,0,0,0,0,-0.7134,-0.7134,0,-0.7087,-0.7086,-0.7086,-0.7066,-0.7066,-0.7066,-0.7066,-0.7017,-0.7015,-0.7014,0,0,0,0,0,0,0,0,0,0,0,0,0,-0.7208,-0.7206,-0.7134,-0.7134,-0.7133,-0.7087,-0.7086,-0.7086,-0.7066,-0.7066,-0.7066,-0.7067,-0.7017,-0.7015,-0.7014,0,0,0,0,0,0,0,0,0,0,0,0,0,-0.717,-0.7206,-0.7135,-0.7118,-0.7116,-0.7087,-0.7086,-0.7085,-0.7066,-0.7066,-0.7066,-0.7067,-0.7018,-0.7016,-0.7014,-0.6997,0,0,-0.7007,-0.7006,0,0,0,0,0,0,0,0,-0.7172,-0.7167,-0.7121,-0.7119,-0.7117,-0.7083,-0.7094,-0.7056,-0.7066,-0.7085,-0.7066,-0.7067,-0.7038,-0.7035,-0.7025,-0.6995,-0.6993,-0.7007,-0.7005,-0.7005,-0.7004,0,0,0,0,0,0,0,-0.7174,-0.7169,-0.7116,-0.712,-0.7118,-0.7113,-0.7107,-0.7086,-0.7061,-0.7083,-0.7082,-0.7077,-0.7037,-0.7027,-0.7024,-0.6992,-0.7007,-0.7005,-0.7004,-0.7003,-0.6945,-0.6945,0,0,0,0,0,0,-0.718,-0.7171,-0.7117,-0.7114,-0.7145,-0.7111,-0.7105,-0.7093,-0.7062,-0.7057,-0.7076,-0.7076,-0.7031,-0.7026,-0.7022,-0.7001,-0.7005,-0.7003,-0.7001,-0.6946,-0.6945,-0.6945,0,0,0,0,0,0,-0.7182,-0.7175,-0.7119,-0.7142,-0.7135,-0.711,-0.7097,-0.7092,-0.7082,-0.7056,-0.7052,-0.7071,-0.7031,-0.7025,-0.7003,-0.6999,-0.7002,-0.7,-0.6946,-0.6946,-0.6945,-0.6958,0,0,0,0,0,0,-0.7184,-0.7176,-0.717,-0.7142,-0.7133,-0.7102,-0.7096,-0.7091,-0.7079,-0.7078,-0.705,-0.7046,-0.7031,-0.7007,-0.7001,-0.6996,-0.6998,-0.6946,-0.6946,-0.6945,-0.6958,-0.6958,-0.6958,0,0,0,0,0,-0.7186,-0.7175,-0.7169,-0.7163,-0.7125,-0.7101,-0.7096,-0.708,-0.7079,-0.7072,-0.7055,-0.7046,-0.7,-0.7005,-0.6998,-0.6992,-0.6946,-0.6946,-0.6945,-0.6958,-0.6958,-0.6958,0,0,0,0,0,0,-0.7202,-0.7171,-0.7165,-0.7144,-0.7126,-0.7098,-0.7089,-0.708,-0.7061,-0.7061,-0.7041,-0.7035,-0.7015,-0.7001,-0.7007,-0.6975,-0.6973,-0.6971,-0.6984,-0.6984,-0.6985,-0.6988,-0.6996,0,0,0,0,0,-0.7203,-0.7187,-0.716,-0.7145,-0.7136,-0.7114,-0.7103,-0.7092,-0.7072,-0.7064,-0.7045,-0.7026,-0.7007,-0.6995,-0.6976,-0.6956,-0.695,-0.6949,-0.6949,-0.6949,-0.6948,-0.6936,-0.6935,-0.6943,-0.6943,-0.6943,0,0,-0.7205,-0.7186,-0.7177,-0.7147,-0.7132,-0.7115,-0.7108,-0.709,-0.7077,-0.7061,-0.7039,-0.7025,-0.7002,-0.6981,-0.6971,-0.697,-0.6944,-0.6948,-0.6949,-0.6947,-0.6935,-0.6935,-0.6934,-0.6943,-0.6943,-0.6943,0,0,-0.7201,-0.7185,-0.717,-0.7154,-0.7131,-0.7116,-0.7113,-0.7087,-0.7077,-0.7055,-0.7043,-0.7027,-0.6995,-0.6979,-0.6966,-0.6956,-0.6947,-0.695,-0.6951,-0.694,-0.694,-0.6939,-0.6935,-0.6934,-0.6949,-0.6949,-0.6949,0,-0.7206,-0.718,-0.7163,-0.7146,-0.7134,-0.7118,-0.7103,-0.7089,-0.706,-0.7052,-0.705,-0.701,-0.6993,-0.6968,-0.6966,-0.6956,-0.6951,-0.6953,-0.6941,-0.694,-0.6939,-0.6935,-0.6934,-0.695,-0.6949,-0.6949,-0.6949,0,-0.7188,-0.7171,-0.7161,-0.7135,-0.7121,-0.7105,-0.7085,-0.7073,-0.7063,-0.7049,-0.7027,-0.7006,-0.6983,-0.6977,-0.6966,-0.695,-0.695,-0.6945,-0.6943,-0.6939,-0.6935,-0.6934,-0.695,-0.695,-0.695,-0.695,0,0,-0.7192,-0.7156,-0.7153,-0.7141,-0.7113,-0.7099,-0.7083,-0.706,-0.705,-0.7031,-0.7017,-0.699,-0.6985,-0.6971,-0.6959,-0.695,-0.6942,-0.6946,-0.6945,-0.6946,-0.6923,-0.6927,-0.6926,-0.6936,-0.6936,-0.6936,-0.6925,0,-0.7183,-0.7153,-0.7137,-0.7114,-0.7097,-0.7082,-0.7068,-0.705,-0.7036,-0.702,-0.7004,-0.6986,-0.6981,-0.6972,-0.6962,-0.6945,-0.6938,-0.6946,-0.6922,-0.6922,-0.6929,-0.6923,-0.6927,-0.6918,-0.6923,-0.6923,-0.6923,0,-0.7169,-0.7151,-0.7126,-0.7101,-0.7093,-0.708,-0.7058,-0.7043,-0.7022,-0.7013,-0.6997,-0.6986,-0.6967,-0.6966,-0.6941,-0.6947,-0.6936,-0.6926,-0.6926,-0.6923,-0.6922,-0.692,-0.6915,-0.6914,-0.692,-0.6921,-0.6921,0,-0.7175,-0.7143,-0.7124,-0.7114,-0.7084,-0.7076,-0.7063,-0.7042,-0.7029,-0.701,-0.7002,-0.6981,-0.6969,-0.6953,-0.6936,-0.6937,-0.6912,-0.691,-0.6903,-0.6904,-0.6899,-0.6899,-0.6892,-0.6892,-0.6892,-0.6892,-0.6892,0,-0.7167,-0.7152,-0.7126,-0.7114,-0.7097,-0.7079,-0.7062,-0.7048,-0.703,-0.7015,-0.7001,-0.6987,-0.6965,-0.6949,-0.6935,-0.6916,-0.6911,-0.6903,-0.6899,-0.6904,-0.6905,-0.6897,-0.6897,-0.6892,-0.6892,-0.6892,-0.6892,0,-0.717,-0.7152,-0.713,-0.7104,-0.7097,-0.7085,-0.7063,-0.7051,-0.7036,-0.7018,-0.7012,-0.6989,-0.6969,-0.6951,-0.6924,-0.6914,-0.6895,-0.6891,-0.6902,-0.69,-0.6895,-0.6896,-0.6882,-0.6879,-0.6882,-0.6882,-0.6882,0,-0.7166,-0.7154,-0.7127,-0.7116,-0.7104,-0.7086,-0.7074,-0.7055,-0.7042,-0.7018,-0.7008,-0.6987,-0.6969,-0.6938,-0.6919,-0.6898,-0.6893,-0.689,-0.689,-0.6895,-0.6893,-0.6894,-0.6892,-0.689,-0.689,-0.689,-0.689,0,-0.7161,-0.7153,-0.7135,-0.7115,-0.71,-0.7083,-0.7065,-0.7057,-0.7035,-0.7021,-0.7001,-0.6987,-0.6959,-0.6939,-0.6916,-0.6902,-0.6892,-0.689,-0.6888,-0.6892,-0.6899,-0.6895,-0.6903,-0.689,-0.689,-0.689,-0.689,-0.689,-0.716,-0.7149,-0.7128,-0.7109,-0.7094,-0.7078,-0.7065,-0.7049,-0.7032,-0.7008,-0.6998,-0.6978,-0.6957,-0.6925,-0.6912,-0.6895,-0.6893,-0.6889,-0.6888,-0.6887,-0.6888,-0.6902,-0.6891,-0.6891,-0.689,-0.689,-0.689,0,-0.7155,-0.7141,-0.7123,-0.7099,-0.7084,-0.7076,-0.7056,-0.7044,-0.7026,-0.7007,-0.699,-0.6966,-0.6946,-0.6926,-0.6904,-0.6895,-0.689,-0.689,-0.689,-0.6887,-0.6892,-0.6896,-0.6894,-0.6894,-0.6894,-0.6894,-0.6894,-0.6894,-0.715,-0.7131,-0.712,-0.7093,-0.7079,-0.7059,-0.7048,-0.7033,-0.7018,-0.6992,-0.6975,-0.6962,-0.6943,-0.692,-0.6901,-0.6895,-0.6888,-0.6889,-0.6883,-0.6887,-0.6887,-0.6887,-0.6891,-0.6888,-0.6888,-0.688,-0.688,-0.6879]},{"header":{"parameterUnit":"m.s-1","parameterCategory":1,"la1":30.2991,"la2":30.254,"lo1":-89.0895,"lo2":-89.0444,"dy":0.0017,"dx":0.0017,"nx":28,"ny":28,"refTime":"2025-11-07T03:00:00:Z","depth":0,"parameterNumber":3,"parameterNumberName":"V-component_of_WINDS"},"data":[0,0,0,0,0,0,0,0,0,0,0,0,0,0,0,0,0,0,0,0,0,0,0,0,0,0,0,0,0,0,0,0,0,0,0,0,0,0,0,0,0,0,0,0,0,0,0,0,0,0,0,0,0,0,0,0,0,0,0.9812,0.9814,0,0.9912,0.9913,0.9914,0.9929,0.9928,0.9927,0.9927,1.0027,1.003,1.0033,0,0,0,0,0,0,0,0,0,0,0,0,0,0.9633,0.9636,0.9812,0.9814,0.9815,0.9912,0.9913,0.9915,0.9929,0.9928,0.9927,0.9926,1.0025,1.0029,1.0034,0,0,0,0,0,0,0,0,0,0,0,0,0,0.972,0.9637,0.9812,0.9834,0.9837,0.9912,0.9913,0.9915,0.993,0.9928,0.9927,0.9926,1.0024,1.0029,1.0034,1.0094,0,0,1.005,1.0053,0,0,0,0,0,0,0,0,0.9715,0.9726,0.9829,0.9833,0.9836,0.9907,0.9887,0.9975,0.993,0.9894,0.9926,0.9925,0.9988,0.9996,1.0017,1.0098,1.0103,1.0051,1.0054,1.0056,1.0058,0,0,0,0,0,0,0,0.9709,0.9722,0.9852,0.9831,0.9835,0.9838,0.9849,0.9904,0.9947,0.9897,0.9899,0.991,0.9989,1.0012,1.002,1.0104,1.0051,1.0055,1.0059,1.0061,1.024,1.0241,0,0,0,0,0,0,0.9699,0.9717,0.9849,0.9855,0.9771,0.9843,0.9855,0.9885,0.9947,0.9955,0.9911,0.9911,1.0004,1.0014,1.0023,1.0098,1.0056,1.0061,1.0064,1.0238,1.024,1.0242,0,0,0,0,0,0,0.9695,0.9711,0.9845,0.9786,0.9804,0.9847,0.9882,0.9888,0.9911,0.9957,0.9965,0.9927,1.0003,1.0016,1.0076,1.0102,1.0063,1.0068,1.0236,1.0239,1.0241,1.0247,0,0,0,0,0,0,0.969,0.9709,0.9732,0.9787,0.9807,0.9896,0.9883,0.9891,0.9921,0.9921,0.9974,0.9982,1.0003,1.0069,1.0082,1.0108,1.0072,1.0234,1.0237,1.024,1.0245,1.0249,1.0253,0,0,0,0,0,0.9683,0.9729,0.9734,0.9749,0.9837,0.9898,0.9909,0.9934,0.9923,0.9946,0.9976,0.998,1.0097,1.0075,1.009,1.0118,1.0233,1.0236,1.024,1.0243,1.0248,1.0253,0,0,0,0,0,0,0.9676,0.9737,0.9742,0.9807,0.9847,0.99,0.9931,0.9939,0.9982,0.998,1.0008,1.002,1.0079,1.0104,1.0079,1.0179,1.0164,1.017,1.0161,1.0166,1.017,1.0164,1.0077,0,0,0,0,0,0.9682,0.9727,0.9778,0.983,0.985,0.9887,0.9914,0.993,0.9972,0.9989,1.0023,1.0064,1.011,1.0139,1.0184,1.0248,1.026,1.0275,1.0279,1.0282,1.0288,1.0325,1.0333,1.0254,1.0254,1.0254,0,0,0.9695,0.9734,0.976,0.983,0.9863,0.9909,0.9901,0.995,0.9984,0.9996,1.0056,1.0082,1.0129,1.0192,1.0222,1.0215,1.0313,1.0287,1.0289,1.0294,1.033,1.0337,1.0344,1.0256,1.0256,1.0255,0,0,0.9742,0.9776,0.9824,0.9857,0.9908,0.9932,0.9943,0.9995,1.0014,1.0074,1.0085,1.0125,1.0204,1.0237,1.0264,1.0325,1.033,1.0338,1.0361,1.0396,1.0402,1.0408,1.0431,1.0438,1.0344,1.0344,1.0344,0,0.9752,0.9822,0.9847,0.9896,0.9927,0.9941,0.9989,1.002,1.0082,1.0103,1.0095,1.0194,1.0226,1.0298,1.0313,1.0334,1.0348,1.0333,1.04,1.0406,1.0411,1.0433,1.0441,1.0344,1.0344,1.0344,1.0344,0,0.9832,0.988,0.9913,0.9973,1.0007,1.0056,1.0088,1.0119,1.0132,1.0157,1.0218,1.0258,1.0312,1.0329,1.0341,1.0403,1.0397,1.0394,1.0379,1.0419,1.044,1.0449,1.0345,1.0345,1.0345,1.0345,0,0,0.9877,0.9952,0.9964,0.9992,1.0049,1.0086,1.0135,1.0188,1.0215,1.0257,1.0299,1.0365,1.0363,1.0394,1.041,1.0441,1.0487,1.0434,1.0435,1.0443,1.0559,1.0562,1.0571,1.0491,1.0493,1.0494,1.0555,0,0.9932,1.0021,1.0045,1.0121,1.0166,1.018,1.0223,1.0262,1.0287,1.0328,1.0355,1.0402,1.0395,1.0414,1.0445,1.0475,1.0511,1.0471,1.0531,1.0533,1.052,1.0582,1.0585,1.0641,1.0563,1.0565,1.0566,0,1.0008,1.0053,1.0133,1.0184,1.0204,1.0242,1.0294,1.0333,1.0378,1.0394,1.0429,1.0442,1.0494,1.0475,1.0547,1.0519,1.0545,1.0563,1.0566,1.0573,1.0552,1.0592,1.0659,1.0668,1.0579,1.0578,1.0577,0,1.0034,1.0115,1.0173,1.0197,1.0258,1.0285,1.0312,1.0355,1.0386,1.043,1.045,1.0499,1.0527,1.0564,1.0591,1.0575,1.066,1.0644,1.0675,1.0675,1.0693,1.0692,1.0767,1.0708,1.0708,1.0708,1.0708,0,1.0093,1.0142,1.0186,1.0222,1.0277,1.0305,1.0358,1.0385,1.0424,1.0466,1.048,1.0518,1.055,1.0593,1.0614,1.067,1.0682,1.0696,1.0702,1.0696,1.0694,1.0714,1.0711,1.071,1.071,1.0709,1.0709,0,1.0133,1.0164,1.0229,1.0283,1.0297,1.0335,1.0381,1.0416,1.0442,1.0494,1.0508,1.0547,1.0598,1.0628,1.0692,1.0706,1.0769,1.0772,1.0755,1.0757,1.0787,1.0784,1.0878,1.0892,1.0823,1.0824,1.0824,0,1.0169,1.0207,1.0265,1.0294,1.0322,1.0368,1.04,1.0428,1.0461,1.0515,1.0544,1.0596,1.064,1.0721,1.0755,1.0804,1.0809,1.0838,1.0816,1.081,1.0811,1.0808,1.0813,1.0842,1.0843,1.0843,1.0844,0,1.0231,1.0244,1.029,1.0341,1.0379,1.042,1.0462,1.0485,1.052,1.0555,1.0608,1.0642,1.0708,1.076,1.0812,1.0839,1.0848,1.085,1.086,1.0855,1.0844,1.0852,1.0766,1.0848,1.0848,1.0847,1.0847,1.0847,1.027,1.0305,1.0352,1.0402,1.0436,1.0475,1.0511,1.0541,1.0586,1.0643,1.0657,1.0712,1.0757,1.0828,1.0856,1.09,1.0895,1.0909,1.0913,1.0917,1.0918,1.0836,1.091,1.091,1.0909,1.0909,1.0909,0,1.0334,1.0364,1.041,1.0468,1.0508,1.0513,1.0559,1.0592,1.0641,1.0682,1.0724,1.0786,1.0836,1.0874,1.0926,1.0954,1.0959,1.0967,1.0965,1.0972,1.0919,1.0906,1.0962,1.0962,1.0962,1.0962,1.0962,1.0962,1.0371,1.0431,1.045,1.0527,1.0557,1.0613,1.0639,1.0674,1.0707,1.0775,1.0818,1.0843,1.0883,1.0937,1.0984,1.0994,1.1013,1.102,1.1031,1.0981,1.0975,1.097,1.0958,1.1023,1.1024,1.108,1.108,1.1081]}]]